AU224 Weather Reports


time (UTC)temp
F
wind
direction
speed
knots
gust
knots
rain 1hr
in
rain 24hr
in
rain mn
in
humidity
%
barometer
mb
20260505041605 44 0 0.0 0.0 0.00 0.00 0.00 81 1006.6
20260505040042 44 0 0.0 0.0 0.00 0.00 0.00 80 1006.6
20260505034545 44 0 0.0 0.0 0.00 0.00 0.00 81 1006.6
20260505033049 44 0 0.0 0.0 0.00 0.00 0.00 80 1006.6
20260505031551 45 0 0.0 0.0 0.00 0.00 0.00 80 1006.7
20260505030048 45 0 0.0 0.0 0.00 0.00 0.00 79 1006.9
20260505024548 45 0 0.0 0.0 0.00 0.00 0.00 79 1007.0
20260505023051 46 0 0.0 0.0 0.00 0.00 0.00 79 1007.2
20260505021548 46 0 0.0 0.0 0.00 0.00 0.00 80 1007.5
20260505020041 46 0 0.0 0.0 0.00 0.00 0.00 79 1007.6
20260505014544 47 0 0.0 0.0 0.00 0.00 0.00 79 1007.6
20260505013046 47 0 0.0 0.0 0.00 0.00 0.00 78 1007.6
20260505011538 48 0 0.0 0.0 0.00 0.00 0.00 78 1007.7
20260505010048 48 0 0.0 0.0 0.00 0.00 0.00 78 1007.6
20260505004548 49 0 0.0 0.0 0.00 0.00 0.00 78 1007.8
20260505003049 49 0 0.0 0.0 0.00 0.00 0.00 78 1007.8
20260505001553 50 0 0.0 0.0 0.00 0.00 0.00 77 1007.9
20260505000054 50 0 0.0 0.0 0.00 0.00 0.00 76 1008.1
20260504234602 51 0 0.0 0.0 0.00 0.00 0.00 76 1008.2
20260504233051 51 0 0.0 0.0 0.00 0.00 0.00 77 1008.2
20260504231558 51 0 0.0 0.0 0.00 0.00 0.00 77 1008.5
20260504230041 52 0 0.0 0.0 0.00 0.00 0.00 77 1008.6
20260504224551 52 0 0.0 0.0 0.00 0.00 0.00 77 1008.8
20260504223050 53 0 0.0 0.0 0.00 0.00 0.00 77 1008.8
20260504221553 53 0 0.0 0.0 0.00 0.00 0.00 76 1008.8
20260504220052 54 0 0.0 0.0 0.00 0.00 0.00 75 1008.7
20260504214548 54 0 0.0 3.5 0.00 0.00 0.00 74 1009.0
20260504213050 55 291 0.0 0.0 0.00 0.00 0.00 73 1009.1
20260504211550 56 0 0.0 0.0 0.00 0.00 0.00 71 1009.0
20260504210104 56 0 0.0 0.0 0.00 0.00 0.00 71 1009.1
20260504204548 57 0 0.0 5.2 0.00 0.00 0.00 71 1009.2
20260504203049 58 0 0.0 0.0 0.00 0.00 0.00 70 1009.2
20260504201551 58 0 0.0 2.6 0.00 0.00 0.00 70 1009.3
20260504200048 59 0 0.0 0.0 0.00 0.00 0.00 68 1009.5
20260504194600 59 0 0.9 5.2 0.00 0.00 0.00 68 1009.4
20260504193045 60 0 0.0 7.8 0.00 0.00 0.00 67 1009.6
20260504191549 61 49 0.9 3.5 0.00 0.00 0.00 65 1009.4
20260504190113 63 0 0.0 8.7 0.00 0.00 0.00 62 1009.9
20260504184555 64 189 1.7 10.4 0.00 0.00 0.00 59 1009.6
20260504183042 67 170 1.7 7.0 0.00 0.00 0.00 52 1009.1
20260504181548 68 0 0.0 0.0 0.00 0.00 0.00 47 1008.5
20260504180126 68 0 0.0 0.0 0.00 0.00 0.00 44 1008.2
20260504174550 68 0 0.0 0.0 0.00 0.00 0.00 45 1008.1
20260504173058 69 0 0.0 0.0 0.00 0.00 0.00 44 1008.2
20260504171541 69 0 0.0 0.9 0.00 0.00 0.00 43 1008.1
20260504120109 71 72 0.0 7.8 0.00 0.00 0.00 42 1009.6
20260504081550 65 0 0.0 5.2 0.00 0.00 0.00 48 1011.7